Regional Weather Roundup
Issued by NWS Binghamton, NY

Home | Current Version | Previous Version | Text Only | Print | Product List | Glossary On
Versions: 1 2 3 4 5 6 7 8 9 10 11 12 13 14 15 16 17 18 19 20 21 22 23 24 25 26 27
000
ASUS41 KBGM 260610
RWRBGM
RWRBGM
BINGHAMTON REGIONAL WEATHER ROUNDUP
NATIONAL WEATHER SERVICE BINGHAMTON NY
200 AM EDT SUN OCT 26 2014

Note: "fair" indicates few or no clouds below 12,000 feet with no
significant weather and/or obstructions to visibility.

* = Station(s) that does not report precipitation, such as rain,
snow, etc, also no thunder or fog.

!NYZ009-015>018-022>025-036-037-044>046-055>057-062-260700
...CENTRAL NEW YORK...

CITY           SKY/WX    TMP DP  RH WIND       PRES   REMARKS
BINGHAMTON     CLOUDY    44  42  93 NW6       29.59R
CORTLAND       MOCLDY    45  45 100 SW5       29.61S
DANSVILLE      PTCLDY    51  38  60 NW10G18   29.66R
ELMIRA         PTCLDY    45  43  93 W3        29.63R
ITHACA         CLOUDY    47  45  93 W7        29.62S
HAMILTON       PTCLDY    50  43  76 NW6       29.56F
MONTICELLO     PTCLDY    48  41  76 W5        29.55F
NORWICH        PTCLDY    45  43  93 CALM      29.59S
ONEONTA        MOCLDY    43  41  93 W8        29.56F
PENN YAN       CLEAR     50  39  66 W8G21     29.62R
ROME           MOCLDY    49  43  80 W7        29.53F
SIDNEY         MOCLDY    46  46 100 SW5       29.59F
SYRACUSE       CLOUDY    53  40  61 W13       29.56F
$$

!PAZ038>040-043-044-047-048-072-260700
...NORTHEAST PENNSYLVANIA...

CITY           SKY/WX    TMP DP  RH WIND       PRES   REMARKS
HAZLETON       PTCLDY    54  39  58 CALM      29.63S
SCRANTON       MOCLDY    54  41  61 W3        29.58S
TOWANDA*       PTCLDY    55  39  54 N8        29.63R
$$
&&
KEY
WCI = WIND CHILL INDEX
VSB = VISIBILITY
HX  = HEAT INDEX
$$



USA.gov is the U.S. government's official web portal to all federal, state and local government web resources and services.